STARLINK-32378

Last updated on Mon Oct 14 2024 00:02:03 GMT+0000 (Coordinated Universal Time)

1 61064U 24164Q 24287.58334491 .00004737 00000+0 12832-3 0 9993 2 61064 53.1599 318.6258 0001038 69.7207 73.4631 15.39621538 6011

Satellite not in orbit

STARLINK-32378